• In Deutschland
  • Länderverzeichnis
  • Für 7 Tage
  • Wassertemperatur
  • Satellitenkarten
  • Wetterkarte
  • Widgets
  • user-avatar
    Anmelden

    Stündliche Wetter Brecht

    Heute, 21 Februar, Mittwoch

    Zeit Temperatur Niederschläge Wind Luftdruck Luftfeuchtigkeit
    00:00 -1°C° 0 mm 3 m/S 765 mmHg 79%
    01:00 -2°C° 0 mm 3 m/S 766 mmHg 80%
    02:00 -2°C° 0 mm 3 m/S 766 mmHg 80%
    03:00 -2°C° 0 mm 3 m/S 766 mmHg 81%
    04:00 -2°C° 0 mm 3 m/S 766 mmHg 81%
    05:00 -2°C° 0 mm 3 m/S 766 mmHg 82%
    06:00 -2°C° 0 mm 3 m/S 766 mmHg 82%
    07:00 -1°C° 0 mm 3 m/S 766 mmHg 77%
    08:00 -1°C° 0 mm 3 m/S 766 mmHg 72%
    09:00 0°C° 0 mm 3 m/S 767 mmHg 67%
    10:00 +1°C° 0 mm 3 m/S 766 mmHg 62%
    11:00 +1°C° 0 mm 4 m/S 766 mmHg 56%
    12:00 +4°C° 0 mm 4 m/S 766 mmHg 51%
    13:00 +4°C° 0 mm 4 m/S 766 mmHg 51%
    14:00 +4°C° 0 mm 4 m/S 766 mmHg 50%
    15:00 +4°C° 0 mm 4 m/S 765 mmHg 50%
    16:00 +3°C° 0 mm 4 m/S 765 mmHg 55%
    17:00 +1°C° 0 mm 3 m/S 765 mmHg 60%
    18:00 0°C° 0 mm 3 m/S 765 mmHg 65%
    19:00 0°C° 0 mm 3 m/S 766 mmHg 67%
    20:00 -1°C° 0 mm 3 m/S 766 mmHg 69%
    21:00 -1°C° 0 mm 3 m/S 766 mmHg 71%
    22:00 -1°C° 0 mm 3 m/S 766 mmHg 72%
    23:00 -2°C° 0 mm 3 m/S 766 mmHg 73%

    Morgen, 22 Februar, Donnerstag

    Zeit Temperatur Niederschläge Wind Luftdruck Luftfeuchtigkeit
    00:00 -2°C° 0 mm 3 m/S 766 mmHg 75%
    01:00 -2°C° 0 mm 3 m/S 766 mmHg 75%
    02:00 -2°C° 0 mm 3 m/S 766 mmHg 75%
    03:00 -2°C° 0 mm 3 m/S 765 mmHg 76%
    04:00 -3°C° 0 mm 4 m/S 765 mmHg 75%
    05:00 -3°C° 0 mm 4 m/S 765 mmHg 75%
    06:00 -3°C° 0 mm 4 m/S 765 mmHg 75%
    07:00 -2°C° 0 mm 4 m/S 765 mmHg 69%
    08:00 -2°C° 0 mm 5 m/S 765 mmHg 64%
    09:00 -1°C° 0 mm 5 m/S 766 mmHg 58%
    10:00 0°C° 0 mm 5 m/S 765 mmHg 52%
    11:00 +1°C° 0 mm 6 m/S 765 mmHg 46%
    12:00 +2°C° 0 mm 6 m/S 765 mmHg 40%
    13:00 +2°C° 0 mm 6 m/S 765 mmHg 40%
    14:00 +2°C° 0 mm 6 m/S 764 mmHg 41%
    15:00 +3°C° 0 mm 6 m/S 764 mmHg 41%
    16:00 +1°C° 0 mm 5 m/S 764 mmHg 46%
    17:00 0°C° 0 mm 5 m/S 764 mmHg 52%
    18:00 -1°C° 0 mm 5 m/S 765 mmHg 57%
    19:00 -1°C° 0 mm 5 m/S 765 mmHg 61%
    20:00 -2°C° 0 mm 4 m/S 765 mmHg 64%
    21:00 -2°C° 0 mm 4 m/S 765 mmHg 67%
    22:00 -2°C° 0 mm 4 m/S 765 mmHg 69%
    23:00 -3°C° 0 mm 4 m/S 765 mmHg 72%

    übermorgen, 23 Februar, Freitag

    Zeit Temperatur Niederschläge Wind Luftdruck Luftfeuchtigkeit
    00:00 -3°C° 0 mm 4 m/S 765 mmHg 74%
    01:00 -3°C° 0 mm 4 m/S 765 mmHg 73%
    02:00 -3°C° 0 mm 4 m/S 765 mmHg 73%
    03:00 -4°C° 0 mm 4 m/S 765 mmHg 72%
    04:00 -4°C° 0 mm 4 m/S 765 mmHg 71%
    05:00 -4°C° 0 mm 4 m/S 765 mmHg 70%
    06:00 -5°C° 0 mm 5 m/S 765 mmHg 70%
    07:00 -4°C° 0 mm 5 m/S 765 mmHg 64%
    08:00 -3°C° 0 mm 6 m/S 765 mmHg 58%
    09:00 -2°C° 0 mm 6 m/S 765 mmHg 52%
    10:00 -2°C° 0 mm 7 m/S 765 mmHg 48%
    11:00 -1°C° 0 mm 7 m/S 764 mmHg 43%
    12:00 0°C° 0 mm 7 m/S 764 mmHg 39%
    13:00 +2°C° 0 mm 7 m/S 764 mmHg 38%
    14:00 +2°C° 0 mm 7 m/S 764 mmHg 37%
    15:00 +2°C° 0 mm 7 m/S 763 mmHg 36%
    16:00 +1°C° 0 mm 6 m/S 763 mmHg 39%
    17:00 -1°C° 0 mm 6 m/S 763 mmHg 41%
    18:00 -2°C° 0 mm 6 m/S 763 mmHg 44%
    19:00 -3°C° 0 mm 6 m/S 764 mmHg 44%
    20:00 -3°C° 0 mm 6 m/S 764 mmHg 43%
    21:00 -4°C° 0 mm 6 m/S 764 mmHg 43%
    22:00 -4°C° 0 mm 6 m/S 764 mmHg 44%
    23:00 -4°C° 0 mm 6 m/S 764 mmHg 44%

    24 Februar, Samstag

    Zeit Temperatur Niederschläge Wind Luftdruck Luftfeuchtigkeit
    00:00 -4°C° 0 mm 6 m/S 764 mmHg 44%
    01:00 -4°C° 0 mm 6 m/S 764 mmHg 44%
    02:00 -4°C° 0 mm 6 m/S 764 mmHg 43%
    03:00 -4°C° 0 mm 6 m/S 764 mmHg 43%
    04:00 -4°C° 0 mm 6 m/S 764 mmHg 42%
    05:00 -4°C° 0 mm 6 m/S 764 mmHg 41%
    06:00 -4°C° 0 mm 6 m/S 764 mmHg 40%
    07:00 -4°C° 0 mm 7 m/S 764 mmHg 38%
    08:00 -4°C° 0 mm 8 m/S 764 mmHg 35%
    09:00 -2°C° 0 mm 8 m/S 765 mmHg 32%
    10:00 -1°C° 0 mm 8 m/S 765 mmHg 32%
    11:00 0°C° 0 mm 8 m/S 765 mmHg 31%
    12:00 +1°C° 0 mm 8 m/S 764 mmHg 31%
    13:00 +1°C° 0 mm 8 m/S 764 mmHg 33%
    14:00 +1°C° 0 mm 8 m/S 764 mmHg 35%
    15:00 +2°C° 0 mm 8 m/S 764 mmHg 37%
    16:00 +1°C° 0 mm 8 m/S 764 mmHg 41%
    17:00 -1°C° 0 mm 7 m/S 765 mmHg 46%
    18:00 -2°C° 0 mm 7 m/S 765 mmHg 50%
    19:00 -2°C° 0 mm 7 m/S 766 mmHg 51%
    20:00 -3°C° 0 mm 7 m/S 766 mmHg 52%
    21:00 -3°C° 0 mm 7 m/S 767 mmHg 54%
    22:00 -3°C° 0 mm 7 m/S 767 mmHg 55%
    23:00 -4°C° 0 mm 7 m/S 767 mmHg 56%

    25 Februar, Sonntag

    Zeit Temperatur Niederschläge Wind Luftdruck Luftfeuchtigkeit
    00:00 -4°C° 0 mm 6 m/S 768 mmHg 58%
    01:00 -4°C° 0 mm 6 m/S 768 mmHg 57%
    02:00 -5°C° 0 mm 6 m/S 768 mmHg 57%
    03:00 -5°C° 0 mm 6 m/S 768 mmHg 56%
    04:00 -6°C° 0 mm 7 m/S 768 mmHg 55%
    05:00 -7°C° 0 mm 7 m/S 769 mmHg 54%
    06:00 -7°C° 0 mm 7 m/S 769 mmHg 53%
    07:00 -6°C° 0 mm 7 m/S 769 mmHg 49%
    08:00 -6°C° 0 mm 7 m/S 769 mmHg 46%
    09:00 -4°C° 0 mm 7 m/S 770 mmHg 43%
    10:00 -3°C° 0 mm 7 m/S 770 mmHg 40%
    11:00 -3°C° 0 mm 7 m/S 770 mmHg 37%
    12:00 -2°C° 0 mm 7 m/S 770 mmHg 34%
    13:00 -2°C° 0 mm 7 m/S 770 mmHg 33%
    14:00 -2°C° 0 mm 6 m/S 770 mmHg 32%
    15:00 -2°C° 0 mm 6 m/S 769 mmHg 32%
    16:00 -3°C° 0 mm 6 m/S 770 mmHg 32%
    17:00 -4°C° 0 mm 5 m/S 770 mmHg 33%
    18:00 -5°C° 0 mm 5 m/S 770 mmHg 33%
    19:00 -5°C° 0 mm 5 m/S 770 mmHg 33%
    20:00 -6°C° 0 mm 5 m/S 771 mmHg 34%
    21:00 -6°C° 0 mm 5 m/S 771 mmHg 34%
    22:00 -6°C° 0 mm 5 m/S 771 mmHg 34%
    23:00 -5°C° 0 mm 4 m/S 771 mmHg 34%

    26 Februar, Montag

    Zeit Temperatur Niederschläge Wind Luftdruck Luftfeuchtigkeit
    00:00 -5°C° 0 mm 4 m/S 771 mmHg 35%
    01:00 -7°C° 0 mm 4 m/S 771 mmHg 34%
    02:00 -7°C° 0 mm 4 m/S 771 mmHg 34%
    03:00 -7°C° 0 mm 4 m/S 770 mmHg 34%
    04:00 -7°C° 0 mm 4 m/S 770 mmHg 34%
    05:00 -7°C° 0 mm 5 m/S 770 mmHg 35%
    06:00 -7°C° 0 mm 5 m/S 771 mmHg 35%
    07:00 -7°C° 0 mm 5 m/S 770 mmHg 34%
    08:00 -6°C° 0 mm 6 m/S 770 mmHg 33%
    09:00 -6°C° 0 mm 6 m/S 770 mmHg 32%
    10:00 -5°C° 0 mm 6 m/S 770 mmHg 30%
    11:00 -4°C° 0 mm 6 m/S 770 mmHg 28%
    12:00 -4°C° 0 mm 6 m/S 770 mmHg 26%
    13:00 -4°C° 0 mm 6 m/S 769 mmHg 26%
    14:00 -3°C° 0 mm 6 m/S 769 mmHg 27%
    15:00 -3°C° 0 mm 6 m/S 768 mmHg 27%
    16:00 -4°C° 0 mm 5 m/S 768 mmHg 31%
    17:00 -5°C° 0 mm 5 m/S 768 mmHg 35%
    18:00 -5°C° 0 mm 4 m/S 768 mmHg 39%
    19:00 -5°C° 0 mm 4 m/S 768 mmHg 41%
    20:00 -5°C° 0 mm 4 m/S 768 mmHg 43%
    21:00 -5°C° 0 mm 4 m/S 768 mmHg 45%
    22:00 -7°C° 0 mm 4 m/S 768 mmHg 48%
    23:00 -7°C° 0 mm 4 m/S 768 mmHg 50%
    Mehr zeigen